Regional Weather Roundup
Issued by NWS

Home | Current Version | Previous Version | Graphics & Text | Print | Product List | Glossary On
Versions: 1 2 3 4 5 6 7 8 9 10 11 12 13 14 15 16 17 18 19 20 21 22 23 24 25 26 27 28 29 30 31 32 33 34 35 36 37 38 39 40 41 42 43 44 45 46 47 48 49 50
000
ASUS45 KCYS 281810
RWRWY

WYOMING REGIONAL WEATHER ROUNDUP
NATIONAL WEATHER SERVICE CHEYENNE WY
1200 PM MDT TUE JUL 28 2015

NOTE:  "FAIR" INDICATES FEW OR NO CLOUDS BELOW 12,000 FEET
WITH NO SIGNIFICANT WEATHER AND/OR OBSTRUCTIONS TO VISIBILITY.

WYZ001-281900-
YELLOWSTONE NATIONAL PARK

CITY           SKY/WX    TMP DP  RH WIND       PRES   REMARKS
LK YELLOWSTONE   N/A     45  31  58 VRB6      30.39R
6HR MIN TEMP:  30; 6HR MAX TEMP:  46;

W YELLOWSTONE  NOT AVBL

$$
WYZ002>013-054>058-071-098>099-281900-
NORTHERN WYOMING

CITY           SKY/WX    TMP DP  RH WIND       PRES   REMARKS
JACKSON        MOSUNNY   55  28  35 W9        30.34S
CODY           FAIR      63  30  29 W15G25    30.21R
GREYBULL       FAIR      70  31  23 N10       30.15R
6HR MIN TEMP:  47; 6HR MAX TEMP:  71;

WORLAND        FAIR      70  26  19 NW13G22   30.16R
6HR MIN TEMP:  43; 6HR MAX TEMP:  70;

SHERIDAN       CLOUDY    67  37  33 NW25G36   30.11R
6HR MIN TEMP:  45; 6HR MAX TEMP:  69;

BUFFALO        FAIR      64  37  36 N8        30.16R
6HR MIN TEMP:  45; 6HR MAX TEMP:  66;

GILLETTE       FAIR      68  36  30 W23G29    30.10R
6HR MIN TEMP:  45; 6HR MAX TEMP:  69;

HULETT         FAIR      66  37  34 W20G30    30.08R
NEWCASTLE      FAIR      68  36  30 W16G22    30.10S

$$
WYZ014>020-022>026-101>103-281900-
CENTRAL WYOMING

CITY           SKY/WX    TMP DP  RH WIND       PRES   REMARKS
BIG PINEY      FAIR      60  24  25 NW12      30.35S
6HR MIN TEMP:  29; 6HR MAX TEMP:  60;

PINEDALE       FAIR      57  25  28 NW12G21   30.35S
DUBOIS         FAIR      54  27  35 NW18G25   30.31S
LANDER         FAIR      64  27  24 VRB3      30.23S
6HR MIN TEMP:  41; 6HR MAX TEMP:  65;

RIVERTON       FAIR      68  21  16 W17G25    30.21S
6HR MIN TEMP:  48; 6HR MAX TEMP:  69;

CASPER         FAIR      70  20  15 W21G30    30.18F
6HR MIN TEMP:  46; 6HR MAX TEMP:  70;

DOUGLAS        FAIR      72  22  15 W24G38    30.16S
6HR MIN TEMP:  47; 6HR MAX TEMP:  72;


$$
WYZ021-027>030-104>119-281900-
SOUTHERN WYOMING

CITY           SKY/WX    TMP DP  RH WIND       PRES   REMARKS
EVANSTON       FAIR      61  15  16 SW10G20   30.36S
6HR MIN TEMP:  40; 6HR MAX TEMP:  62;

KEMMERER       FAIR      59  23  25 W15       30.37R
FORT BRIDGER   CLEAR     64  14  14 W14G23    30.38S
ROCK SPRINGS   FAIR     N/A N/A N/A MISG      30.33S
DIXON          FAIR      66  28  24 W10       30.34S
RAWLINS        FAIR      64  17  16 W23G32    30.30S
6HR MIN TEMP:  44; 6HR MAX TEMP:  64;

SARATOGA       FAIR      66  27  22 W23       30.32S
LARAMIE        FAIR      68  26  20 W13G26    30.27R
6HR MIN TEMP:  45; 6HR MAX TEMP:  69;

CHEYENNE       FAIR      74  30  19 NW16G29   30.19S
6HR MIN TEMP:  54; 6HR MAX TEMP:  75;

TORRINGTON     FAIR      75  24  15 W10G23    30.12R
6HR MIN TEMP:  51; 6HR MAX TEMP:  76;

PINE BLUFFS    FAIR      77  28  16 NW17G25   30.16R

$$



USA.gov is the U.S. government's official web portal to all federal, state and local government web resources and services.